Lapse_Rate
6.0 5.8 5.5 5.4 5.3 5.3 5.4 5.4 5.3 5.4 5.5 5.7 5.8 6.0 6.0 5.9 5.8 5.6 5.5 5.4 5.3 5.2
5.8 5.6 5.4 5.3 5.4 5.6 5.6 5.5 5.6 5.6 5.5 5.6 5.7 5.8 5.8 5.8 5.7 5.6 5.4 5.3 5.2 5.0
5.6 5.5 5.4 5.4 5.6 5.6 5.6 5.7 5.7 5.6 5.4 5.5 5.7 5.7 5.7 5.7 5.6 5.3 5.1 5.0 5.0 4.9
5.5 5.5 5.4 5.6 5.7 5.7 5.8 5.8 5.6 5.5 5.5 5.6 5.6 5.6 5.6 5.5 5.3 5.1 4.9 4.8 4.8 4.8
5.6 5.4 5.7 5.8 5.8 5.9 5.9 5.8 5.6 5.5 5.5 5.5 5.6 5.5 5.5 5.2 5.0 5.0 4.9 4.8 4.8 4.8
5.6 5.8 5.8 5.9 6.0 6.0 5.9 5.6 5.5 5.5 5.5 5.6 5.5 5.3 5.1 4.9 4.9 4.8 4.8 4.7 4.6 4.4
5.8 5.8 5.9 6.0 6.0 5.8 5.6 5.5 5.4 5.5 5.5 5.5 5.2 5.1 4.9 4.8 4.8 4.8 4.7 4.4 4.4 4.2
5.9 6.0 6.0 5.9 5.9 5.7 5.5 5.4 5.5 5.5 5.3 5.2 5.0 4.9 5.0 4.8 4.8 4.7 4.5 4.5 4.1 3.8
5.8 5.8 5.9 5.9 5.7 5.5 5.4 5.5 5.6 5.4 5.2 5.0 5.0 4.9 4.8 4.7 4.7 4.6 4.4 4.0 3.7 3.6
5.7 5.9 5.9 5.8 5.7 5.5 5.6 5.5 5.3 5.2 5.0 4.8 4.8 4.8 4.8 4.8 4.6 4.3 3.9 3.6 3.5 3.6
5.9 5.9 5.9 5.7 5.6 5.7 5.5 5.3 5.1 4.9 4.9 4.8 4.8 4.9 4.7 4.5 4.2 3.8 3.5 3.5 3.6 3.3
5.9 5.8 5.7 5.8 5.7 5.4 5.2 5.0 4.8 4.8 4.8 4.9 4.8 4.6 4.4 4.0 3.7 3.5 3.7 3.9 3.6 3.2
5.8 5.8 5.7 5.6 5.4 5.2 5.0 4.9 4.8 4.8 4.7 4.6 4.5 4.2 3.9 3.5 3.5 3.7 3.8 3.8 3.6 3.8
5.7 5.6 5.5 5.3 5.1 4.9 4.8 4.8 4.8 4.6 4.5 4.2 4.0 3.7 3.4 3.5 3.7 3.6 3.7 3.7 4.2 4.5
Wind_Speed
8 5 5 5 4 4 3 3 2 3 3 4 4 4 3 2 3 3 4 5 4 3
7 8 6 7 6 4 4 3 3 3 3 3 3 4 4 3 5 4 3 5 4 3
7 7 7 6 6 6 5 3 3 3 3 3 4 4 4 4 5 4 4 4 5 4
6 7 6 6 6 5 4 3 3 3 4 4 5 5 5 5 5 5 6 5 5 6
7 6 6 6 6 4 4 3 3 4 5 5 6 6 6 6 6 6 7 7 6 7
7 6 6 6 5 4 4 4 4 5 5 5 6 6 6 6 6 6 7 7 6 8
6 6 6 5 4 4 4 4 5 5 5 5 5 5 6 6 6 6 6 6 7 8
6 6 6 5 4 4 4 4 5 5 4 4 5 5 6 6 6 6 6 6 6 7
6 6 5 5 4 4 4 5 4 4 5 6 5 13 16 13 5 5 6 7 8 6
6 6 5 4 4 5 3 3 4 5 5 6 6 14 16 17 3 5 6 7 9 9
6 5 5 5 4 2 2 4 4 5 6 5 6 16 17 18 5 6 7 8 9 10
5 5 5 4 2 2 3 3 3 4 6 6 7 16 17 16 6 6 8 8 7 10
6 6 5 3 2 1 2 3 4 6 5 10 6 15 18 16 7 8 8 7 8 14
5 5 4 3 1 2 3 4 5 5 6 6 7 8 18 19 9 8 9 9 8 9
Wind_Direction
113 123 122 131 126 122 115 115 86 80 67 39 24 16 8 356 331 313 307 309 299 278
113 118 127 118 109 112 107 112 95 73 51 26 5 2 357 347 322 309 298 292 277 260
115 113 113 110 114 110 104 85 84 58 37 12 359 350 352 329 305 312 302 295 288 286
112 109 107 107 106 103 96 86 63 40 18 5 351 350 340 318 306 320 306 298 283 278
114 114 107 106 103 100 97 67 47 26 15 1 351 336 328 321 314 305 299 292 287 276
118 116 117 111 106 100 85 57 33 29 15 355 340 325 314 301 297 294 290 286 281 278
129 128 121 114 106 89 72 57 34 20 3 348 322 308 301 294 294 291 290 294 292 285
129 121 116 109 94 81 65 48 31 7 348 337 326 328 323 315 305 307 316 300 285 288
126 123 119 108 97 81 53 29 12 355 347 339 337 326 334 336 331 337 303 303 304 292
129 126 120 107 87 59 32 356 355 351 342 322 312 328 331 331 326 301 292 301 308 306
130 125 114 90 66 26 11 358 338 326 324 319 313 331 331 325 303 289 281 283 289 292
131 118 98 89 50 16 2 328 327 316 319 318 306 327 327 328 308 295 278 278 285 290
108 110 108 93 55 343 319 324 331 319 314 321 312 315 328 331 313 307 311 310 295 308
102 104 96 86 44 349 350 334 326 321 311 299 299 303 328 329 324 314 320 322 324 315